Location: Latina
(41.4670°N, 12.8670°E)
Time: 18:22:47
(UTC+02:00)

ISS - Pass Details

Date: 11 May 2021
Orbit: 417 x 422 km, 51.6° (Epoch: 18 June)

Event Time Altitude Azimuth Distance (km) Brightness Sun altitude
Exits shadow 02:02:50 17° 1° (N) 1,171 -0.8 -29.1°
Drops below altitude 10° 02:04:37 10° 32° (NNE) 1,509 -0.1 -29.1°
Sets 02:07:15 0° 53° (NE) 2,376 0.8 -28.9°
